FW6365 Weather Reports


Display with metric or nautical units.
time (UTC)temp
F
wind
direction
speed
MPH
gust
MPH
rain 1hr
in
rain 24hr
in
rain mn
in
humidity
%
barometer
mb
20260831080051 51 0 0.0 0.0 0.00 0.00 0.00 96 1016.3
20260831075528 51 0 0.0 0.0 0.00 0.00 0.00 96 1016.3
20260831075028 51 0 0.0 1.0 0.00 0.00 0.00 96 1016.3
20260831074552 51 0 0.0 1.0 0.00 0.00 0.00 96 1016.3
20260831074032 51 0 0.0 0.0 0.00 0.00 0.00 96 1016.4
20260831073532 51 0 0.0 0.0 0.00 0.00 0.00 96 1016.4
20260831073103 51 0 0.0 0.0 0.00 0.00 0.00 96 1016.4
20260831072528 51 0 0.0 0.0 0.00 0.00 0.00 96 1016.4
20260831072033 51 0 0.0 1.0 0.00 0.00 0.00 96 1016.5
20260831071554 51 0 0.0 1.0 0.00 0.00 0.00 96 1016.5
20260831071025 51 0 0.0 0.0 0.00 0.00 0.00 96 1016.5
20260831070524 51 0 0.0 0.0 0.00 0.00 0.00 95 1016.6
20260831070054 52 0 0.0 0.0 0.00 0.00 0.00 95 1016.6
20260831065529 52 0 0.0 0.0 0.00 0.00 0.00 96 1016.6
20260831065030 52 0 0.0 0.0 0.00 0.00 0.00 95 1016.7
20260831064600 52 0 0.0 0.0 0.00 0.00 0.00 95 1016.7
20260831064030 52 0 0.0 0.0 0.00 0.00 0.00 95 1016.8
20260831063527 52 0 0.0 0.0 0.00 0.00 0.00 95 1016.9
20260831063053 53 0 0.0 0.0 0.00 0.00 0.00 95 1016.9
20260831062527 53 0 0.0 0.0 0.00 0.00 0.00 95 1017.0
20260831062024 53 0 0.0 0.0 0.00 0.00 0.00 95 1017.0
20260831061559 53 0 0.0 0.0 0.00 0.00 0.00 94 1017.1
20260831061028 53 0 0.0 0.0 0.00 0.00 0.00 94 1017.1
20260831060524 53 0 0.0 0.0 0.00 0.00 0.00 94 1017.1
20260831060104 53 0 0.0 0.0 0.00 0.00 0.00 94 1017.1
20260831055524 54 0 0.0 0.0 0.00 0.00 0.00 94 1017.1
20260831055027 54 0 0.0 0.0 0.00 0.00 0.00 94 1017.1
20260831054553 54 0 0.0 0.0 0.00 0.00 0.00 94 1017.1
20260831054027 54 0 0.0 0.0 0.00 0.00 0.00 94 1017.3
20260831053527 54 0 0.0 0.0 0.00 0.00 0.00 93 1017.3
20260831053053 54 0 0.0 0.0 0.00 0.00 0.00 93 1017.3
20260831052531 54 0 0.0 0.0 0.00 0.00 0.00 93 1017.3
20260831052028 55 0 0.0 0.0 0.00 0.00 0.00 93 1017.4
20260831051559 55 0 0.0 0.0 0.00 0.00 0.00 93 1017.4
20260831051028 55 0 0.0 0.0 0.00 0.00 0.00 93 1017.5
20260831050523 55 0 0.0 0.0 0.00 0.00 0.00 92 1017.6
20260831050059 55 0 0.0 0.0 0.00 0.00 0.00 92 1017.4
20260831045525 55 0 0.0 0.0 0.00 0.00 0.00 92 1017.6
20260831045030 56 0 0.0 0.0 0.00 0.00 0.00 91 1017.5
20260831044550 56 0 0.0 0.0 0.00 0.00 0.00 91 1017.6
20260831044024 56 0 0.0 0.0 0.00 0.00 0.00 90 1017.6
20260831043524 56 0 0.0 0.0 0.00 0.00 0.00 90 1017.6
20260831043053 57 0 0.0 0.0 0.00 0.00 0.00 90 1017.7
20260831042524 57 0 0.0 0.0 0.00 0.00 0.00 89 1017.6
20260831042024 57 0 0.0 0.0 0.00 0.00 0.00 89 1017.6
20260831041600 57 0 0.0 0.0 0.00 0.00 0.00 89 1017.7
20260831041025 58 0 0.0 0.0 0.00 0.00 0.00 88 1017.7
20260831040530 58 0 0.0 0.0 0.00 0.00 0.00 88 1017.7
20260831040057 59 0 0.0 0.0 0.00 0.00 0.00 87 1017.8
20260831035524 59 0 0.0 0.0 0.00 0.00 0.00 86 1017.7
20260831035028 59 0 0.0 0.0 0.00 0.00 0.00 85 1017.6
20260831034549 60 0 0.0 0.0 0.00 0.00 0.00 85 1017.5
20260831034024 60 0 0.0 0.0 0.00 0.00 0.00 85 1017.5
20260831033524 61 0 0.0 1.0 0.00 0.00 0.00 84 1017.5
20260831033044 61 0 0.0 1.0 0.00 0.00 0.00 83 1017.5
20260831032526 62 0 0.0 1.0 0.00 0.00 0.00 82 1017.5
20260831032023 63 0 0.0 1.0 0.00 0.00 0.00 81 1017.6
20260831031553 63 0 0.0 1.0 0.00 0.00 0.00 78 1017.4
20260831031025 64 11 0.0 1.0 0.00 0.00 0.00 76 1017.4
20260831030524 64 0 0.0 1.0 0.00 0.00 0.00 74 1017.3
20260831030107 65 0 0.0 1.0 0.00 0.00 0.00 73 1017.4
20260831025524 66 343 0.0 1.0 0.00 0.00 0.00 73 1017.3
20260831025025 66 0 0.0 2.0 0.00 0.00 0.00 72 1017.3
20260831024611 67 341 1.0 3.0 0.00 0.00 0.00 71 1017.4
20260831024024 68 338 1.0 3.0 0.00 0.00 0.00 69 1017.4
20260831023525 68 11 1.0 3.0 0.00 0.00 0.00 68 1017.4
20260831023054 69 286 0.0 3.0 0.00 0.00 0.00 69 1017.4
20260831022525 70 323 0.0 2.0 0.00 0.00 0.00 64 1017.4
20260831022024 71 323 0.0 2.0 0.00 0.00 0.00 62 1017.4
20260831021554 71 345 1.0 3.0 0.00 0.00 0.00 62 1017.5
20260831021028 71 324 0.0 3.0 0.00 0.00 0.00 62 1017.6
20260831020528 71 312 2.0 7.0 0.00 0.00 0.00 59 1017.6
20260831020049 72 327 2.0 7.0 0.00 0.00 0.00 59 1017.5
20260831015528 72 333 2.0 7.0 0.00 0.00 0.00 58 1017.6
20260831015027 72 313 2.0 5.0 0.00 0.00 0.00 59 1017.6
20260831014552 72 302 0.0 4.0 0.00 0.00 0.00 59 1017.6
20260831014027 71 302 1.0 4.0 0.00 0.00 0.00 59 1017.7
20260831013528 71 318 3.0 4.0 0.00 0.00 0.00 59 1017.7
20260831013110 71 31 1.0 4.0 0.00 0.00 0.00 61 1017.8
20260831012528 70 342 2.0 5.0 0.00 0.00 0.00 59 1017.7
20260831012029 71 9 3.0 5.0 0.00 0.00 0.00 58 1017.7
20260831011551 72 306 2.0 4.0 0.00 0.00 0.00 58 1017.8
20260831011030 72 21 1.0 6.0 0.00 0.00 0.00 59 1017.9
20260831010529 71 300 1.0 6.0 0.00 0.00 0.00 59 1017.8
20260831010054 71 312 3.0 6.0 0.00 0.00 0.00 60 1017.8
20260831005528 71 300 0.0 4.0 0.00 0.00 0.00 60 1017.8
20260831005028 70 351 2.0 5.0 0.00 0.00 0.00 60 1018.0
20260831004554 70 22 2.0 5.0 0.00 0.00 0.00 60 1018.1
20260831004026 71 344 1.0 3.0 0.00 0.00 0.00 61 1018.1
20260831003529 71 341 0.0 3.0 0.00 0.00 0.00 59 1018.0
20260831003048 70 341 1.0 5.0 0.00 0.00 0.00 60 1018.2
20260831002527 70 26 2.0 5.0 0.00 0.00 0.00 60 1018.2
20260831002024 71 11 2.0 4.0 0.00 0.00 0.00 60 1018.1
20260831001559 71 340 2.0 3.0 0.00 0.00 0.00 59 1018.2
20260831001028 72 0 0.0 4.0 0.00 0.00 0.00 58 1018.3
20260831000527 72 313 1.0 4.0 0.00 0.00 0.00 60 1018.3
20260831000057 71 325 2.0 4.0 0.00 0.00 0.00 59 1018.3
20260830235524 72 0 0.0 2.0 0.00 0.00 0.00 60 1018.4
20260830235025 71 0 0.0 5.0 0.00 0.00 0.00 58 1018.4
20260830234603 71 309 2.0 6.0 0.00 0.00 0.00 57 1018.4
20260830234024 71 11 2.0 6.0 0.00 0.00 0.00 59 1018.5
20260830233528 72 340 2.0 9.0 0.00 0.00 0.00 58 1018.6
20260830233048 72 274 2.0 9.0 0.00 0.00 0.00 56 1018.6
20260830232529 72 265 3.0 7.0 0.00 0.00 0.00 55 1018.5
20260830232024 73 247 3.0 8.0 0.00 0.00 0.00 56 1018.6
20260830231557 73 217 4.0 8.0 0.00 0.00 0.00 56 1018.7
20260830231028 73 247 2.0 8.0 0.00 0.00 0.00 55 1018.6
20260830230524 73 260 4.0 8.0 0.00 0.00 0.00 54 1018.6
20260830230051 73 267 3.0 6.0 0.00 0.00 0.00 56 1018.7
20260830225528 72 265 2.0 6.0 0.00 0.00 0.00 56 1018.8
20260830225028 73 236 3.0 5.0 0.00 0.00 0.00 55 1018.7
20260830224554 72 272 1.0 8.0 0.00 0.00 0.00 57 1018.8
20260830224028 72 309 3.0 8.0 0.00 0.00 0.00 54 1019.0
20260830223528 73 305 2.0 8.0 0.00 0.00 0.00 56 1019.0
20260830223049 72 317 2.0 8.0 0.00 0.00 0.00 55 1019.2
20260830222527 73 298 2.0 5.0 0.00 0.00 0.00 56 1019.1
20260830222030 72 225 1.0 5.0 0.00 0.00 0.00 57 1019.2
20260830221554 71 250 2.0 5.0 0.00 0.00 0.00 57 1019.3
20260830221024 71 317 2.0 5.0 0.00 0.00 0.00 59 1019.4
20260830220524 71 301 2.0 5.0 0.00 0.00 0.00 59 1019.4
20260830220056 71 127 1.0 5.0 0.00 0.00 0.00 57 1019.5
20260830215528 71 290 2.0 5.0 0.00 0.00 0.00 57 1019.5
20260830215025 71 300 3.0 5.0 0.00 0.00 0.00 58 1019.6
20260830214547 71 300 1.0 5.0 0.00 0.00 0.00 60 1019.7
20260830214027 70 277 2.0 5.0 0.00 0.00 0.00 60 1019.7
20260830213527 70 25 3.0 5.0 0.00 0.00 0.00 58 1019.8
20260830213046 71 252 1.0 4.0 0.00 0.00 0.00 58 1019.9
20260830212527 70 167 0.0 3.0 0.00 0.00 0.00 60 1019.9
20260830212025 68 218 1.0 4.0 0.00 0.00 0.00 60 1020.0
20260830211552 69 244 1.0 4.0 0.00 0.00 0.00 61 1020.1
20260830211031 69 307 2.0 4.0 0.00 0.00 0.00 64 1020.1
20260830210530 69 308 2.0 4.0 0.00 0.00 0.00 59 1020.1
20260830210053 70 311 2.0 8.0 0.00 0.00 0.00 60 1020.1
20260830205532 70 0 1.0 8.0 0.00 0.00 0.00 60 1020.1
20260830205028 71 314 4.0 8.0 0.00 0.00 0.00 59 1020.1
20260830204556 72 94 2.0 6.0 0.00 0.00 0.00 57 1020.1
20260830204027 71 43 2.0 6.0 0.00 0.00 0.00 59 1020.2
20260830203524 71 188 1.0 6.0 0.00 0.00 0.00 59 1020.2
20260830203115 70 0 2.0 7.0 0.00 0.00 0.00 60 1020.2
20260830202528 71 244 4.0 7.0 0.00 0.00 0.00 61 1020.3
20260830202026 70 152 4.0 7.0 0.00 0.00 0.00 62 1020.2
20260830201558 69 95 2.0 7.0 0.00 0.00 0.00 63 1020.2
20260830201024 69 111 3.0 7.0 0.00 0.00 0.00 63 1020.3
20260830200534 69 86 3.0 6.0 0.00 0.00 0.00 63 1020.3
20260830200048 68 347 1.0 6.0 0.00 0.00 0.00 64 1020.3
20260830195524 68 26 3.0 6.0 0.00 0.00 0.00 64 1020.2
20260830195027 68 117 3.0 7.0 0.00 0.00 0.00 64 1020.3
20260830194547 68 148 1.0 9.0 0.00 0.00 0.00 64 1020.4
20260830194028 68 184 3.0 9.0 0.00 0.00 0.00 64 1020.3
20260830193525 67 219 3.0 7.0 0.00 0.00 0.00 66 1020.4
20260830193053 68 232 4.0 7.0 0.00 0.00 0.00 65 1020.4
20260830192524 68 126 1.0 4.0 0.00 0.00 0.00 66 1020.5
20260830192028 67 0 0.0 4.0 0.00 0.00 0.00 68 1020.4
20260830191555 67 92 1.0 4.0 0.00 0.00 0.00 67 1020.5
20260830191024 68 32 2.0 4.0 0.00 0.00 0.00 65 1020.5
20260830190527 67 80 1.0 5.0 0.00 0.00 0.00 69 1020.5
20260830190057 67 185 2.0 5.0 0.00 0.00 0.00 68 1020.5
20260830185529 67 202 2.0 6.0 0.00 0.00 0.00 69 1020.5
20260830185027 66 160 3.0 6.0 0.00 0.00 0.00 69 1020.6
20260830184551 66 111 2.0 8.0 0.00 0.00 0.00 69 1020.5
20260830184027 66 165 5.0 8.0 0.00 0.00 0.00 70 1020.7
20260830183525 66 106 2.0 6.0 0.00 0.00 0.00 69 1020.7
20260830183105 66 134 2.0 6.0 0.00 0.00 0.00 70 1020.7
20260830182529 67 317 2.0 6.0 0.00 0.00 0.00 68 1020.6
20260830182029 67 68 1.0 6.0 0.00 0.00 0.00 71 1020.8
20260830181601 66 106 1.0 4.0 0.00 0.00 0.00 71 1020.8
20260830181031 65 226 1.0 7.0 0.00 0.00 0.00 72 1020.8
20260830180527 64 132 2.0 7.0 0.00 0.00 0.00 74 1020.8
20260830180058 64 147 2.0 8.0 0.00 0.00 0.00 72 1020.8
20260830175526 64 104 3.0 8.0 0.00 0.00 0.00 72 1020.7
20260830175025 64 58 3.0 6.0 0.00 0.00 0.00 73 1020.8
20260830174559 65 97 3.0 5.0 0.00 0.00 0.00 73 1020.8
20260830174024 64 157 2.0 4.0 0.00 0.00 0.00 74 1020.8
20260830173527 64 304 1.0 3.0 0.00 0.00 0.00 77 1020.8
20260830173105 63 334 0.0 5.0 0.00 0.00 0.00 78 1020.9
20260830172528 62 252 2.0 5.0 0.00 0.00 0.00 78 1020.9
20260830172029 62 177 1.0 4.0 0.00 0.00 0.00 81 1020.8
20260830171610 61 352 2.0 3.0 0.00 0.00 0.00 83 1020.8
20260830171027 61 329 1.0 2.0 0.00 0.00 0.00 84 1020.8
20260830170525 61 0 0.0 4.0 0.00 0.00 0.00 87 1020.8
20260830170053 60 286 1.0 4.0 0.00 0.00 0.00 88 1020.9
20260830165527 59 305 1.0 3.0 0.00 0.00 0.00 89 1020.8
20260830165024 59 236 0.0 2.0 0.00 0.00 0.00 92 1020.8
20260830164609 58 89 0.0 2.0 0.00 0.00 0.00 94 1020.9
20260830164025 57 360 0.0 4.0 0.00 0.00 0.00 95 1020.9
20260830163529 56 9 1.0 4.0 0.00 0.00 0.00 95 1021.0
20260830163104 56 351 2.0 4.0 0.00 0.00 0.00 95 1021.0
20260830162528 55 333 2.0 4.0 0.00 0.00 0.00 96 1021.0
20260830162028 55 24 2.0 4.0 0.00 0.00 0.00 96 1021.1
20260830161556 55 13 2.0 3.0 0.00 0.00 0.00 97 1021.1
20260830161028 54 19 0.0 1.0 0.00 0.00 0.00 97 1021.1
20260830160528 54 0 0.0 1.0 0.00 0.00 0.00 97 1021.0
20260830160055 54 0 0.0 1.0 0.00 0.00 0.00 97 1021.0
20260830155525 54 0 0.0 1.0 0.00 0.00 0.00 97 1021.0
20260830155027 53 0 0.0 1.0 0.00 0.00 0.00 97 1021.1
20260830154553 53 0 0.0 2.0 0.00 0.00 0.00 97 1021.1
20260830154024 53 0 0.0 2.0 0.00 0.00 0.00 97 1021.3
20260830153525 52 10 0.0 1.0 0.00 0.00 0.00 97 1021.3
20260830153049 52 315 0.0 1.0 0.00 0.00 0.00 97 1021.2
20260830152532 52 0 0.0 1.0 0.00 0.00 0.00 97 1021.3
20260830152025 51 315 0.0 1.0 0.00 0.00 0.00 97 1021.1
20260830151555 51 315 0.0 1.0 0.00 0.00 0.00 97 1021.1
20260830151027 50 0 0.0 0.0 0.00 0.00 0.00 97 1021.0
20260830150524 50 0 0.0 0.0 0.00 0.00 0.00 98 1021.0
20260830150052 49 0 0.0 0.0 0.00 0.00 0.00 98 1021.0
20260830145528 49 0 0.0 0.0 0.00 0.00 0.00 97 1021.1
20260830145023 49 0 0.0 0.0 0.00 0.00 0.00 97 1021.0
20260830144558 48 0 0.0 0.0 0.00 0.00 0.00 97 1021.0
20260830144024 48 0 0.0 0.0 0.00 0.00 0.00 97 1021.1
20260830143526 48 0 0.0 1.0 0.00 0.00 0.00 97 1021.0
20260830143102 47 0 0.0 1.0 0.00 0.00 0.00 97 1021.0
20260830142524 47 315 0.0 1.0 0.00 0.00 0.00 97 1021.0
20260830142024 47 315 0.0 1.0 0.00 0.00 0.00 97 1020.9
20260830141553 47 0 0.0 0.0 0.00 0.00 0.00 97 1020.8
20260830141024 47 0 0.0 0.0 0.00 0.00 0.00 97 1020.7
20260830140524 47 0 0.0 0.0 0.00 0.00 0.00 97 1020.5
20260830140047 47 0 0.0 0.0 0.00 0.00 0.00 97 1020.6
20260830135528 47 0 0.0 0.0 0.00 0.00 0.00 97 1020.5
20260830135027 47 0 0.0 0.0 0.00 0.00 0.00 97 1020.4
20260830134551 46 0 0.0 0.0 0.00 0.00 0.00 97 1020.5
20260830134024 46 0 0.0 0.0 0.00 0.00 0.00 97 1020.4
20260830133531 46 0 0.0 0.0 0.00 0.00 0.00 97 1020.4
20260830133119 46 0 0.0 0.0 0.00 0.00 0.00 97 1020.4
20260830132527 46 0 0.0 0.0 0.00 0.00 0.00 96 1020.3
20260830132027 47 0 0.0 0.0 0.00 0.00 0.00 97 1020.3
20260830131603 47 0 0.0 0.0 0.00 0.00 0.00 96 1020.3
20260830131028 47 315 0.0 0.0 0.00 0.00 0.00 96 1020.4
20260830130527 47 0 0.0 0.0 0.00 0.00 0.00 97 1020.5
20260830130057 47 315 0.0 0.0 0.00 0.00 0.00 96 1020.4
20260830125527 47 0 0.0 0.0 0.00 0.40 0.00 96 1020.3
20260830125025 47 0 0.0 0.0 0.00 0.40 0.00 97 1020.3
20260830124608 47 0 0.0 0.0 0.00 0.40 0.00 96 1020.4
20260830124033 47 0 0.0 0.0 0.00 0.40 0.00 96 1020.4
20260830123527 47 0 0.0 0.0 0.00 0.40 0.00 96 1020.4
20260830123052 47 0 0.0 0.0 0.00 0.40 0.00 96 1020.4
20260830122525 47 0 0.0 2.0 0.00 0.40 0.00 96 1020.4
20260830122027 47 0 0.0 2.0 0.00 0.40 0.00 96 1020.4
20260830121556 47 300 1.0 2.0 0.00 0.40 0.00 96 1020.5
20260830121027 47 0 0.0 0.0 0.00 0.40 0.00 96 1020.4
20260830120527 47 0 0.0 0.0 0.00 0.40 0.00 96 1020.4
20260830120054 47 0 0.0 0.0 0.00 0.40 0.00 96 1020.4
20260830115524 47 0 0.0 0.0 0.00 0.42 0.00 96 1020.4
20260830115028 47 0 0.0 0.0 0.00 0.42 0.00 96 1020.5
20260830114554 47 0 0.0 0.0 0.00 0.42 0.00 96 1020.4
20260830114026 47 0 0.0 0.0 0.00 0.42 0.00 96 1020.4
20260830113528 48 0 0.0 1.0 0.00 0.42 0.00 95 1020.4
20260830113045 48 0 0.0 1.0 0.00 0.42 0.00 96 1020.4
20260830112528 48 0 0.0 0.0 0.00 0.42 0.00 96 1020.3
20260830112026 48 0 0.0 0.0 0.00 0.42 0.00 96 1020.4
20260830111551 48 0 0.0 1.0 0.00 0.42 0.00 95 1020.3
20260830111024 49 0 0.0 1.0 0.00 0.42 0.00 95 1020.2
20260830110524 49 0 0.0 0.0 0.00 0.42 0.00 95 1020.3
20260830110054 50 0 0.0 1.0 0.00 0.42 0.00 95 1020.3
20260830105533 50 0 0.0 1.0 0.00 0.42 0.00 95 1020.3
20260830105024 51 86 0.0 1.0 0.00 0.42 0.00 96 1020.2
20260830104553 51 0 0.0 1.0 0.00 0.42 0.00 95 1020.3
20260830104030 51 0 0.0 1.0 0.00 0.42 0.00 96 1020.3
20260830103530 51 0 0.0 1.0 0.00 0.42 0.00 95 1020.2
20260830103054 51 117 0.0 1.0 0.00 0.42 0.00 95 1020.2
20260830102526 51 0 0.0 1.0 0.00 0.42 0.00 95 1020.2
20260830102023 51 121 0.0 5.0 0.00 0.42 0.00 95 1020.2
20260830101552 51 143 1.0 5.0 0.00 0.42 0.00 95 1020.2
20260830101027 51 171 2.0 5.0 0.00 0.42 0.00 95 1020.2
20260830100526 52 160 1.0 3.0 0.00 0.42 0.00 95 1020.2
20260830100053 52 155 0.0 5.0 0.00 0.42 0.00 95 1020.2
20260830095525 52 137 0.0 5.0 0.00 0.42 0.00 95 1020.2
20260830095028 52 208 1.0 6.0 0.00 0.42 0.00 95 1020.2
20260830094557 52 199 2.0 6.0 0.00 0.42 0.00 95 1020.1
20260830094028 52 205 2.0 6.0 0.00 0.42 0.00 95 1020.1
20260830093530 52 172 3.0 5.0 0.00 0.42 0.00 95 1020.2
20260830093054 52 205 2.0 5.0 0.00 0.42 0.00 95 1020.0
20260830092524 52 202 3.0 6.0 0.00 0.42 0.00 95 1020.2
20260830092024 52 169 3.0 6.0 0.00 0.42 0.00 95 1020.1
20260830091549 52 172 3.0 5.0 0.00 0.42 0.00 94 1020.2
20260830091028 52 223 2.0 5.0 0.00 0.42 0.00 94 1020.2
20260830090532 52 198 3.0 5.0 0.00 0.42 0.00 94 1020.3
20260830090100 52 194 3.0 5.0 0.00 0.42 0.00 95 1020.3
20260830085528 52 194 2.0 5.0 0.00 0.42 0.00 94 1020.2
20260830085025 52 186 2.0 4.0 0.00 0.42 0.00 94 1020.2
20260830084559 52 163 2.0 4.0 0.00 0.42 0.00 94 1020.2
20260830084029 52 202 2.0 4.0 0.00 0.42 0.00 94 1020.3
20260830083525 52 165 2.0 4.0 0.00 0.42 0.00 93 1020.2
20260830083105 53 162 2.0 5.0 0.00 0.42 0.00 93 1020.2
20260830082527 53 201 2.0 5.0 0.00 0.42 0.00 93 1020.3
20260830082027 53 188 2.0 4.0 0.00 0.42 0.00 93 1020.3
20260830081555 53 161 2.0 7.0 0.00 0.42 0.00 93 1020.3
20260830081027 53 179 2.0 7.0 0.00 0.42 0.00 92 1020.3
20260830080528 53 199 4.0 7.0 0.00 0.42 0.00 92 1020.3